Location: Dodendorf
(52.0397°N, 11.6142°E)
Time: 00:37:08
(UTC+00:00)

Daily predictions for brighter satellites

Satellite Brightness Start Highest point End
(mag) Time Altitude Azimuth Time Altitude Azimuth Time Altitude Azimuth
SL-16 R/B 3.0 00:12:19 55° NE 00:12:19 55° NE 00:17:40 10° N
Cosmos 1943 Rocket 3.5 00:17:17 33° NNW 00:17:17 33° NNW 00:21:18 10° NNE
COSMOS 2455 4.4 00:18:59 26° NW 00:20:03 28° NNW 00:25:11 10° NNE
CZ-2D R/B 3.6 00:17:10 10° NNE 00:20:45 32° ENE 00:20:45 32° ENE
ATLAS 5 CENTAUR R/B 4.1 00:26:24 17° ENE 00:26:24 17° ENE 00:27:41 10° ENE
Cosmos 2297 Rocket 3.1 00:24:16 10° NNW 00:28:49 46° NNE 00:28:49 46° NNE
Resurs 1-4 Rocket 3.2 00:31:07 10° NNE 00:34:54 39° ENE 00:34:54 39° ENE
NOSS 3-1 (A) 4.5 00:32:51 10° NW 00:37:40 46° WNW 00:37:40 46° WNW
Cosmos 2369 Rocket 3.4 00:41:05 35° NNW 00:41:05 35° NNW 00:45:30 10° NNE
Nadezhda 1 Rocket 4.3 00:42:41 58° N 00:42:41 58° N 00:47:33 10° N
Gbstr 26 Del rocket 4.4 00:44:53 87° S 00:44:53 87° S 00:52:50 10° E
CZ-4C R/B 3.7 00:47:10 29° NW 00:48:49 33° NNW 00:54:57 10° NE
USA 267 4.3 00:49:41 10° ENE 00:54:57 32° ESE 00:54:57 32° ESE
ATLAS 2AS CENTAUR R/B 4.3 00:51:29 10° WNW 00:58:35 35° N 01:05:20 10° ENE
Cosmos 2221 4.3 01:06:05 28° N 01:06:05 28° N 01:08:09 10° N
Cosmos 1818 4.5 01:05:33 42° E 01:05:33 42° E 01:09:44 10° NE
SL-8 Rocket 4.0 01:06:30 10° NNW 01:12:13 73° NNW 01:12:13 73° NNW
Meteor 2-2 Rocket 4.3 01:23:00 70° NNW 01:23:00 70° NNW 01:28:14 10° N
Cosmos 2218 Rocket 3.9 01:17:45 10° NNW 01:24:06 81° W 01:24:06 81° W
Cosmos 2366 rocket 3.9 01:20:21 10° NNW 01:26:34 81° W 01:26:34 81° W
Cosmos 2227 Rocket 2.8 01:21:17 10° NNW 01:25:13 46° NW 01:25:13 46° NW
Cosmos 1992 Rocket 4.2 01:30:28 64° E 01:30:28 64° E 01:35:19 10° NNE
Cosmos 1656 4.1 01:30:38 51° ESE 01:30:46 51° ESE 01:36:06 10° NE
Lacrosse 5 3.6 01:32:48 23° ESE 01:32:48 23° ESE 01:36:22 10° ENE
USA 234 3.1 01:26:33 10° ESE 01:33:06 87° SSW 01:37:44 21° WNW
ADEOS II 2.2 01:32:57 10° NNE 01:38:12 66° ESE 01:38:28 65° ESE
CZ-4B R/B 3.5 01:35:43 10° NNE 01:40:47 73° ESE 01:40:47 73° ESE
Cosmos 864 Rocket 4.4 01:37:39 10° NNW 01:43:29 64° W 01:43:29 64° W
NOSS 2-2 (C) 4.4 01:41:52 10° NW 01:47:02 78° NE 01:54:16 10° SE
SL-08 R/B 3.4 01:47:13 72° ENE 01:47:13 72° ENE 01:51:51 10° NNW
SL-08 R/B 4.4 01:41:28 10° N 01:47:54 85° W 01:49:27 55° S
Cosmos 2181 Rocket 3.9 01:47:57 65° W 01:48:13 65° WNW 01:54:24 10° N
Cosmos 1633 Rocket 3.6 01:45:31 10° N 01:48:58 54° N 01:48:58 54° N
IDEFIX/ARIANE 42P 3.9 01:46:12 10° NNE 01:51:04 36° E 01:53:40 23° SE
Cosmos 1328 Rocket 4.5 01:51:45 41° ESE 01:52:21 43° E 01:56:36 10° NNE
IRS-1C 4.5 01:49:21 10° NNE 01:54:40 61° ESE 01:55:57 47° SSE
Cosmos 1666 Rocket 4.3 01:50:34 10° NNW 01:53:47 47° NNW 01:53:47 47° NNW
SL-16 R/B 3.7 01:57:26 27° WNW 01:57:26 27° WNW 02:01:01 10° NNW
Cosmos 1241 Rocket 4.4 01:54:48 64° WSW 01:55:49 79° NW 02:02:19 10° NE
Cosmos 1606 3.7 01:59:13 44° NNE 01:59:13 44° NNE 02:01:53 10° NNE
ATLAS CENTAUR R/B 4.3 01:42:30 10° W 02:00:04 65° N 02:06:16 10° ENE
ARIANE 5 R/B 3.1 01:55:14 10° NNE 02:00:15 52° E 02:01:51 38° SSE
Cosmos 1151 Rocket 3.5 02:00:39 55° ESE 02:00:55 56° E 02:05:11 10° NNE
IRS-1D 3.5 01:55:58 10° NNE 02:01:21 78° WNW 02:01:47 72° WSW
Cosmos 1943 Rocket 4.5 01:58:47 10° NW 02:01:36 14° NNW 02:04:30 10° N
CZ-2D R/B 2.7 01:57:14 10° N 02:02:04 41° WNW 02:02:04 41° WNW
AQUA 4.3 01:58:03 10° N 02:02:08 48° NW 02:02:08 48° NW
ATLAS 5 CENTAUR R/B 2.1 02:07:56 49° NW 02:07:59 49° NW 02:12:46 10° NE
NPP 4.1 02:03:15 10° N 02:08:22 44° WNW 02:08:28 44° WNW
Genesis I 4.1 02:12:59 41° NNW 02:12:59 41° NNW 02:16:10 10° NE
CBERS-1 3.9 02:08:26 10° N 02:13:32 66° WNW 02:13:59 62° W
Cosmos 2297 Rocket 3.8 02:08:38 10° NW 02:10:32 20° NW 02:10:32 20° NW
Resurs 1-4 Rocket 3.0 02:11:15 10° N 02:15:55 33° WNW 02:15:58 33° WNW
Cosmos 1933 3.3 02:18:15 86° NNE 02:18:15 86° NNE 02:22:18 10° N
Cosmos 2082 3.6 02:12:36 10° NW 02:18:13 61° WSW 02:20:23 37° S
USA 305 3.9 02:22:42 33° SSE 02:22:55 34° SE 02:26:46 10° ENE
Cosmos 2369 Rocket 4.4 02:23:03 10° NW 02:26:03 14° NNW 02:29:04 10° NNE
USA 306 3.8 02:26:37 35° SSE 02:26:58 35° SE 02:30:52 10° ENE
Meteor 1-26 Rocket 4.4 02:24:04 26° S 02:27:06 66° E 02:32:29 10° NNE
CZ-2D R/B 3.8 02:23:13 10° NNE 02:27:23 63° ESE 02:28:45 40° SSE
X-37B 3.1 02:29:08 15° SE 02:29:08 15° SE 02:30:00 10° ESE
SJ 16-02 2.7 02:24:16 10° NNW 02:28:27 40° ENE 02:32:36 10° SE
Meteor 1-25 Rocket 4.2 02:24:12 10° NNW 02:29:59 67° W 02:33:00 29° S
Gbstr 26 Del rocket 4.4 02:27:26 25° W 02:32:36 81° SSW 02:40:08 10° ESE
ASTEX 1 3.5 02:28:23 10° N 02:33:26 78° E 02:36:22 25° S
Cosmos 389 Rocket 3.6 02:32:18 29° SE 02:33:32 41° E 02:36:55 10° NNE
IRS-P3 4.1 02:28:32 10° NNE 02:33:51 67° WNW 02:35:28 44° SW
Cosmos 1697 Rocket 2.7 02:32:33 39° SSW 02:34:46 82° ESE 02:40:25 10° NNE
CZ-2C R/B 4.2 02:32:50 10° NNE 02:37:23 31° E 02:41:57 10° SSE
H-2A R/B 2.4 02:33:32 10° SSE 02:37:53 67° ENE 02:42:21 10° N
Cosmos 1980 Rocket 2.8 02:35:19 21° S 02:38:56 53° ESE 02:44:26 10° NE
USA 267 3.2 02:32:30 10° ENE 02:39:05 81° SSE 02:42:17 34° SW
CZ-4C R/B 4.1 02:33:25 10° NW 02:39:06 33° NNE 02:45:46 10° ENE
ERS-2 3.5 02:37:51 10° SE 02:41:18 40° ENE 02:44:46 10° N
Iridium 2 4.1 02:39:47 30° SSE 02:41:28 61° E 02:45:11 10° NNE
Cosmos 1602 3.5 02:39:08 10° NNW 02:42:58 68° W 02:43:13 65° SW
ERS-1 4.4 02:38:28 10° NNE 02:43:35 72° WNW 02:45:42 36° SSW
Cosmos 2263 Rocket 2.5 02:38:54 10° NNW 02:44:33 71° ENE 02:50:13 10° SE
SL-8 R/B 3.9 02:46:01 44° SW 02:46:43 48° SSW 02:51:17 10° ESE
Meteor 1-14 Rocket 4.1 02:41:06 10° NNW 02:46:47 81° W 02:52:20 10° S
Helios 1B 4.4 02:43:13 10° SSE 02:47:30 81° WSW 02:51:53 10° NNW
Cosmos 1818 4.1 02:46:11 33° W 02:48:10 46° NW 02:53:27 10° NE
ATLAS 2AS CENTAUR R/B 3.7 02:43:41 10° NW 02:51:13 52° NNE 02:58:13 10° ESE
SL-16 R/B 4.4 02:48:03 10° SSE 02:52:23 23° ESE 02:56:44 10° NE
Cosmos 1821 Rocket 4.3 02:47:11 10° NNW 02:53:10 46° W 02:56:29 25° SSW
USA 307 3.4 02:52:25 36° SSW 02:53:41 49° SSE 02:57:48 10° ENE
Cosmos 1470 Rocket 3.9 02:50:28 10° NNW 02:54:41 44° W 02:55:25 40° WSW
Cosmos 2227 4.2 02:49:49 10° NNW 02:55:33 86° ENE 03:01:11 10° SSE
Spot 4 Rocket 3.9 02:51:19 10° NNE 02:56:29 80° WNW 02:59:44 23° SSW
USA 308 3.4 02:55:23 35° SSW 02:56:46 51° SSE 03:00:54 10° ENE
Cosmos 1812 4.1 02:53:12 10° SSE 02:56:47 38° E 03:00:23 10° NNE
Cosmos 1500 3.3 02:55:54 10° N 02:59:46 77° ENE 03:03:36 10° SSE
Cosmos 1666 4.0 03:01:55 10° N 03:05:37 43° ENE 03:09:16 10° SSE
Landsat 5 3.6 03:01:28 10° S 03:05:59 69° WSW 03:10:28 10° NNW
Meteor 1-5 Rocket 4.1 03:00:55 10° NNW 03:06:15 84° ENE 03:11:38 10° SSE
Cosmos 1934 Rocket 4.0 03:02:24 10° NNW 03:08:18 56° W 03:14:12 10° S
Cosmos 2227 Rocket 4.3 03:06:48 10° WNW 03:06:57 10° WNW 03:06:57 10° WNW
IRIDIUM 104 4.5 03:05:12 10° N 03:10:27 77° E 03:15:41 10° S
Cosmos 1238 Rocket 4.1 03:04:00 10° NNW 03:10:33 61° W 03:16:43 10° S
Cosmos 1782 2.9 03:10:11 31° SW 03:11:52 54° WNW 03:15:51 10° N
Cosmos 1898 Rocket 3.8 03:08:02 10° NNW 03:13:17 70° ENE 03:18:33 10° SSE
Cosmos 1656 4.4 03:12:05 24° W 03:14:37 36° NW 03:19:45 10° NNE
Lacrosse 5 1.9 03:12:00 27° SW 03:14:50 80° SSE 03:19:56 10° ENE
CZ-2C R/B 2.6 03:12:33 10° N 03:16:17 65° WNW 03:18:32 23° SSW
ADEOS Rocket 3.2 03:09:47 10° SSE 03:16:35 81° ENE 03:22:43 10° NNW
CZ-4B R/B 2.4 03:13:35 10° SE 03:16:38 47° ENE 03:19:46 10° N
USA 234 3.7 03:10:43 10° SSE 03:16:38 36° SW 03:22:36 10° WNW
Cosmos 1515 Rocket 3.8 03:15:08 25° SW 03:17:26 49° WNW 03:21:46 10° N
ADEOS II 3.3 03:13:17 10° N 03:17:30 25° WNW 03:19:23 20° W
IRIDIUM 114 4.3 03:14:22 10° N 03:19:37 90° ENE 03:24:51 10° S
Nadezhda 3 Rocket 4.5 03:18:39 21° SW 03:22:12 40° WNW 03:27:59 10° N
USA 276 2.4 03:21:38 34° SW 03:22:45 55° S 03:25:55 10° E
USA 32 4.4 03:18:30 10° N 03:23:46 70° E 03:29:00 10° SSE
MSX 3.9 03:21:14 10° N 03:26:58 64° WNW 03:32:39 10° SSW
Cosmos 972 Rocket 4.3 03:24:15 22° WSW 03:27:00 43° WNW 03:31:44 10° NNE
Cosmos 1356 4.1 03:24:05 10° NNW 03:27:12 31° W 03:28:27 24° SW
Cosmos 44 3.3 03:24:49 16° SSW 03:28:20 70° SE 03:33:02 10° NE
IRIDIUM 103 4.2 03:23:31 10° N 03:28:45 78° W 03:33:57 10° S
IDEFIX/ARIANE 42P 3.1 03:25:48 10° N 03:30:44 42° WNW 03:34:28 17° SW
Cosmos 1707 Rocket 4.5 03:26:37 10° S 03:30:48 50° E 03:35:02 10° NNE
Cosmos 1605 Rocket 4.1 03:24:50 10° NNW 03:31:06 59° W 03:37:22 10° S
Meteor 1-11 Rocket 3.8 03:25:30 10° NNW 03:31:23 88° ENE 03:37:06 10° SSE
Cosmos 1933 Rocket 4.4 03:28:13 10° NNW 03:31:56 28° W 03:34:17 17° SW
Cosmos 921 Rocket 3.0 03:28:00 10° SSW 03:32:11 81° ESE 03:36:24 10° NNE
Cosmos 2278 3.8 03:28:11 16° SW 03:32:43 67° WNW 03:38:27 10° NNE
CZ-3B R/B 2.8 03:32:05 20° W 03:34:30 73° N 03:46:20 10° ENE
Cosmos 2228 Rocket 3.1 03:31:12 10° SSW 03:35:32 60° WNW 03:39:56 10° N
SAR-Lupe-4 3.7 03:34:43 10° SSE 03:38:18 77° ENE 03:41:55 10° NNW
ARIANE 5 R/B 3.5 03:34:45 10° N 03:39:08 29° WNW 03:42:10 16° WSW
Cosmos 2369 4.2 03:36:41 17° WSW 03:40:49 45° NW 03:46:21 10° NNE
Cosmos 1937 Rocket 3.5 03:37:14 10° NNW 03:42:26 86° ENE 03:47:34 10° SSE
CZ-4C R/B 4.2 03:42:40 14° SW 03:44:55 23° W 03:47:51 10° NW
ALOS 3.3 03:41:30 10° NNE 03:46:03 49° E 03:50:34 10° S
Cosmos 1733 Rocket 3.5 03:41:53 10° N 03:46:15 67° ENE 03:50:33 10° SSE
IRIDIUM 106 4.4 03:41:56 10° NNW 03:47:02 56° W 03:52:08 10° SSW
Meteor 1-27 Rocket 4.2 03:43:05 10° S 03:48:59 72° E 03:54:54 10° NNE
Cosmos 1536 2.8 03:45:55 10° N 03:50:02 87° WSW 03:54:06 10° S
SAR-Lupe-1 4.0 03:47:03 10° SSE 03:50:36 82° WSW 03:54:13 10° NNW
Cosmos 1869 Rocket 3.9 03:46:58 10° NNW 03:51:03 40° W 03:55:05 10° SSW
ATLAS 5 CENTAUR R/B 3.5 03:49:56 10° WNW 03:53:44 24° N 03:58:00 10° NE
Cosmos 1484 Rocket 3.5 03:50:59 10° NNE 03:54:55 59° E 03:58:52 10° S
Meteor 1-4 Rocket 2.4 03:54:18 10° SSW 03:57:44 65° WNW 04:01:16 10° N
USA 305 2.9 03:58:51 13° WSW 04:02:41 87° NNW 04:06:58 10° ENE
X-37B 2.3 04:01:25 12° WSW 04:03:33 21° S 04:06:01 10° SE
Cosmos 1862 Rocket 4.4 04:00:19 10° S 04:04:36 56° E 04:08:53 10° NNE
Cosmos 1689 Rocket 2.2 04:02:06 10° SSE 04:05:03 81° ENE 04:08:03 10° NNW
Meteor 1-31 Rocket 3.3 04:01:55 10° NNE 04:05:43 62° ESE 04:09:30 10° S
Cosmos 2100 Rocket 4.0 03:59:22 10° NNW 04:05:46 76° W 04:12:07 10° S
USA 306 2.9 04:02:46 12° WSW 04:06:46 84° NNW 04:11:03 10° ENE
SJ 16-02 2.2 04:03:07 10° NW 04:06:53 28° W 04:10:37 10° SSW
Cosmos 1802 Rocket 4.1 04:01:55 10° N 04:08:08 89° E 04:14:23 10° S
PSLV R/B 3.9 04:04:11 10° N 04:08:11 42° WNW 04:12:08 10° SW
Cosmos 1727 Rocket 4.1 04:01:58 10° SSW 04:08:16 66° WNW 04:14:36 10° N
Cosmos 1763 Rocket 3.7 04:02:57 10° SSW 04:08:16 83° ESE 04:13:37 10° NNE
Cosmos 389 Rocket 4.1 04:06:11 11° WSW 04:08:28 18° WNW 04:11:02 10° NNW
Cosmos 2360 Rocket 3.6 04:07:43 10° S 04:12:59 41° ESE 04:18:16 10° NE
H-2A R/B 3.6 04:11:23 10° SW 04:14:20 17° W 04:17:19 10° NW
ERS-2 3.4 04:12:14 10° SW 04:15:01 20° W 04:17:49 10° NW
CZ-2C R/B 2.9 04:10:55 10° N 04:15:45 46° WNW 04:20:40 10° SW
NOSS 3-4 (A) 3.9 04:11:37 10° NW 04:18:28 71° SW 04:26:06 10° SSE
NOSS 3-4 (C) 3.9 04:11:43 10° NW 04:18:35 72° SW 04:26:13 10° SSE
PAYLOAD A 4.4 04:14:57 10° N 04:19:17 37° WNW 04:23:35 10° SW
Cosmos 1697 Rocket 3.9 04:14:43 10° W 04:19:25 27° NW 04:24:09 10° NNE
METEOR-M 4.4 04:14:45 10° NNE 04:20:09 80° ESE 04:25:30 10° SSW
USA 267 3.6 04:15:35 10° ENE 04:22:02 62° N 04:28:28 10° W
Cosmos 1980 Rocket 2.9 04:17:56 10° WSW 04:23:10 37° NW 04:28:25 10° NNE
FENGYUN 3A 3.7 04:18:03 10° NNE 04:23:29 85° WNW 04:28:54 10° SSW
Cosmos 2278 Rocket 4.2 04:18:50 10° NNW 04:23:46 30° NE 04:28:42 10° ESE
Cosmos 1844 3.9 04:18:58 10° NNW 04:24:35 77° ENE 04:30:09 10° SE
Cosmos 1459 Rocket 4.0 04:21:31 10° NNW 04:27:30 58° W 04:33:24 10° S
CZ-4C R/B 3.5 04:22:10 10° NW 04:28:54 62° NE 04:36:51 10° ESE
